TUI8990 EDDP-LEBL

Flight info

Callsign TUI8990
Flight time N/A
Altitude 370000
Route NEVKO1K NEVKO Q243 BAMKI Z94 KOMIB DCT TEDGO/N0460F370 N869 NATOR DCT LUTIX DCT BENOT DCT NEMOS DCT GEVEA DCT INCUS DCT BALSI DCT RETNO DCT TUPOX DCT MTG DCT DIVKO DCT NILDU N975 BISBA
Aircraft B738/M-SDE2E3FGHIRWXY/LB1

Departure

Time 2026-05-07 08:56
Airport Leipzig/Halle Airport (EDDP)

Arrival

Time N/A
Airport Josep Tarradellas Barcelona-El Prat Airport (LEBL)
Time Latitude Longitude Altitude Speed Heading
2026-05-07 08:49 51.41922 12.21334 433 ft 0 kts 287°
2026-05-07 08:50 51.41926 12.21311 424 ft 7 kts 286°
2026-05-07 08:50 51.41950 12.21186 427 ft 14 kts 288°
2026-05-07 08:50 51.41976 12.21044 427 ft 13 kts 285°
2026-05-07 08:50 51.41988 12.20931 424 ft 9 kts 257°
2026-05-07 08:51 51.41943 12.20874 421 ft 9 kts 197°
2026-05-07 08:51 51.41874 12.20844 419 ft 12 kts 194°
2026-05-07 08:51 51.41801 12.20812 424 ft 11 kts 195°
2026-05-07 08:51 51.41726 12.20780 421 ft 11 kts 194°
2026-05-07 08:52 51.41653 12.20750 425 ft 11 kts 194°
2026-05-07 08:52 51.41582 12.20718 426 ft 10 kts 198°
2026-05-07 08:52 51.41514 12.20685 430 ft 10 kts 196°
2026-05-07 08:52 51.41448 12.20655 434 ft 10 kts 194°
2026-05-07 08:53 51.41382 12.20628 438 ft 10 kts 197°
2026-05-07 08:53 51.41319 12.20599 436 ft 9 kts 195°
2026-05-07 08:53 51.41257 12.20574 427 ft 9 kts 194°
2026-05-07 08:53 51.41197 12.20550 433 ft 9 kts 193°
2026-05-07 08:54 51.41168 12.20561 438 ft 2 kts 94°
2026-05-07 08:54 51.41168 12.20567 428 ft 0 kts 89°
2026-05-07 08:55 51.41168 12.20570 429 ft 4 kts 89°
2026-05-07 08:55 51.41185 12.20949 438 ft 65 kts 85°
2026-05-07 08:55 51.41234 12.21977 456 ft 119 kts 85°
2026-05-07 08:55 51.41310 12.23542 477 ft 162 kts 84°
2026-05-07 08:56 51.41363 12.25399 951 ft 166 kts 85°
2026-05-07 08:56 51.41250 12.27269 1440 ft 179 kts 114°
2026-05-07 08:56 51.40295 12.28636 1738 ft 208 kts 160°
2026-05-07 08:56 51.38805 12.28753 2082 ft 221 kts 184°
2026-05-07 08:57 51.37254 12.28494 2506 ft 228 kts 191°
2026-05-07 08:57 51.35889 12.27345 3055 ft 231 kts 227°
2026-05-07 08:57 51.34946 12.25177 3501 ft 245 kts 240°
2026-05-07 08:57 51.34009 12.22760 3969 ft 263 kts 237°
2026-05-07 08:58 51.32705 12.20738 4760 ft 269 kts 214°
2026-05-07 08:58 51.31115 12.19115 5613 ft 273 kts 213°
2026-05-07 08:58 51.29493 12.17483 6415 ft 279 kts 212°
2026-05-07 08:58 51.27835 12.15805 7184 ft 281 kts 213°
2026-05-07 08:59 51.26187 12.14126 8044 ft 283 kts 213°
2026-05-07 08:59 51.24515 12.12414 8795 ft 287 kts 213°
2026-05-07 08:59 51.23078 12.10937 9505 ft 289 kts 213°
2026-05-07 08:59 51.21680 12.09498 10067 ft 294 kts 213°
2026-05-07 09:00 51.19914 12.07679 10415 ft 314 kts 213°
2026-05-07 09:00 51.18016 12.05722 10628 ft 335 kts 213°
2026-05-07 09:00 51.16172 12.03824 11266 ft 339 kts 213°
2026-05-07 09:00 51.14181 12.01778 11983 ft 342 kts 213°
2026-05-07 09:01 51.12302 11.99452 12720 ft 343 kts 230°
2026-05-07 09:01 51.11069 11.96538 13480 ft 342 kts 240°
2026-05-07 09:01 51.09856 11.93278 14177 ft 346 kts 239°
2026-05-07 09:01 51.08631 11.90004 14714 ft 353 kts 239°
2026-05-07 09:02 51.07364 11.86642 15550 ft 347 kts 238°
2026-05-07 09:02 51.06164 11.83476 16799 ft 334 kts 238°
2026-05-07 09:02 51.05087 11.80647 17566 ft 334 kts 237°